KAC980 OKKK-OMDB

Flight info

Callsign KAC980
Flight time 0h 46m
Altitude 37000
Route SESRU M677 VUTEB
Aircraft A346/H-SDE2E3FGHIJ3J4J5M1RWXY/LB1D1

Departure

Time 2026-05-07 20:00
Airport Kuwait International Airport (OKKK)

Arrival

Time 2026-05-07 20:47
Airport Dubai International Airport (OMDB)
Time Latitude Longitude Altitude Speed Heading
2026-05-07 19:35 29.23708 47.97202 175 ft 0 kts 25°
2026-05-07 19:46 29.23695 47.97194 175 ft 3 kts 35°
2026-05-07 19:46 29.23681 47.97179 175 ft 3 kts 57°
2026-05-07 19:47 29.23674 47.97160 175 ft 3 kts 80°
2026-05-07 19:47 29.23674 47.97139 175 ft 3 kts 105°
2026-05-07 19:47 29.23680 47.97123 175 ft 3 kts 134°
2026-05-07 19:47 29.23691 47.97114 175 ft 0 kts 157°
2026-05-07 19:50 29.23690 47.97114 175 ft 1 kts 157°
2026-05-07 19:51 29.23675 47.97123 175 ft 4 kts 150°
2026-05-07 19:51 29.23645 47.97146 175 ft 7 kts 141°
2026-05-07 19:51 29.23597 47.97181 175 ft 8 kts 166°
2026-05-07 19:51 29.23548 47.97150 175 ft 9 kts 232°
2026-05-07 19:52 29.23540 47.97137 175 ft 2 kts 232°
2026-05-07 19:52 29.23524 47.97113 175 ft 5 kts 236°
2026-05-07 19:52 29.23506 47.97064 175 ft 9 kts 248°
2026-05-07 19:52 29.23497 47.96983 174 ft 12 kts 279°
2026-05-07 19:53 29.23509 47.96877 173 ft 15 kts 279°
2026-05-07 19:53 29.23523 47.96764 172 ft 15 kts 271°
2026-05-07 19:53 29.23470 47.96659 170 ft 17 kts 216°
2026-05-07 19:53 29.23437 47.96643 171 ft 0 kts 194°
2026-05-07 19:54 29.23434 47.96643 171 ft 0 kts 187°
2026-05-07 19:54 29.23424 47.96642 171 ft 2 kts 181°
2026-05-07 19:54 29.23421 47.96644 171 ft 0 kts 149°
2026-05-07 19:54 29.23419 47.96645 171 ft 2 kts 146°
2026-05-07 19:55 29.23395 47.96683 172 ft 9 kts 117°
2026-05-07 19:55 29.23328 47.96785 172 ft 22 kts 145°
2026-05-07 19:55 29.23186 47.96865 173 ft 24 kts 157°
2026-05-07 19:55 29.23033 47.96942 176 ft 25 kts 155°
2026-05-07 19:56 29.22869 47.97028 176 ft 27 kts 155°
2026-05-07 19:56 29.22694 47.97121 175 ft 29 kts 155°
2026-05-07 19:56 29.22508 47.97220 175 ft 30 kts 155°
2026-05-07 19:56 29.22343 47.97308 175 ft 26 kts 155°
2026-05-07 19:57 29.22195 47.97387 175 ft 23 kts 155°
2026-05-07 19:57 29.22041 47.97468 175 ft 26 kts 155°
2026-05-07 19:57 29.21873 47.97557 175 ft 28 kts 155°
2026-05-07 19:57 29.21694 47.97652 175 ft 29 kts 155°
2026-05-07 19:58 29.21510 47.97751 177 ft 28 kts 154°
2026-05-07 19:58 29.21374 47.97826 178 ft 22 kts 154°
2026-05-07 19:58 29.21301 47.97850 179 ft 0 kts 187°
2026-05-07 19:58 29.21287 47.97848 179 ft 3 kts 194°
2026-05-07 19:59 29.21267 47.97833 178 ft 5 kts 222°
2026-05-07 19:59 29.21249 47.97789 178 ft 8 kts 262°
2026-05-07 19:59 29.21257 47.97718 178 ft 10 kts 293°
2026-05-07 19:59 29.21301 47.97640 179 ft 13 kts 308°
2026-05-07 20:00 29.21387 47.97569 178 ft 25 kts 332°
2026-05-07 20:00 29.21852 47.97310 175 ft 120 kts 337°
2026-05-07 20:00 29.22846 47.96815 327 ft 176 kts 335°
2026-05-07 20:00 29.24004 47.96270 1277 ft 184 kts 334°
2026-05-07 20:01 29.25214 47.95712 2280 ft 188 kts 335°
2026-05-07 20:01 29.26436 47.95169 3140 ft 192 kts 335°
2026-05-07 20:01 29.27700 47.94622 3941 ft 197 kts 335°
2026-05-07 20:01 29.28966 47.93901 4587 ft 211 kts 328°
2026-05-07 20:02 29.30293 47.93050 5231 ft 224 kts 329°
2026-05-07 20:02 29.31721 47.92188 5873 ft 241 kts 331°
2026-05-07 20:02 29.33307 47.91341 6439 ft 263 kts 341°
2026-05-07 20:02 29.35176 47.91201 7200 ft 279 kts
2026-05-07 20:03 29.36963 47.92105 8132 ft 287 kts 37°
2026-05-07 20:03 29.38241 47.93878 9071 ft 292 kts 59°
2026-05-07 20:03 29.39200 47.95955 9988 ft 296 kts 62°
2026-05-07 20:03 29.40152 47.98087 10756 ft 306 kts 62°
2026-05-07 20:04 29.41161 48.00305 11251 ft 323 kts 61°
2026-05-07 20:04 29.42245 48.02646 11697 ft 341 kts 61°
2026-05-07 20:04 29.43243 48.05193 12128 ft 362 kts 74°
2026-05-07 20:04 29.43438 48.08140 12504 ft 382 kts 97°
2026-05-07 20:05 29.42675 48.11116 13008 ft 395 kts 112°
2026-05-07 20:05 29.41625 48.14055 13865 ft 400 kts 113°
2026-05-07 20:05 29.40570 48.17026 14717 ft 404 kts 112°
2026-05-07 20:05 29.39522 48.20044 15528 ft 409 kts 112°
2026-05-07 20:06 29.38476 48.23101 16338 ft 414 kts 112°
2026-05-07 20:06 29.37425 48.26192 17120 ft 418 kts 112°
2026-05-07 20:06 29.36376 48.29275 17877 ft 423 kts 112°
2026-05-07 20:06 29.35284 48.32479 18625 ft 428 kts 112°
2026-05-07 20:07 29.34195 48.35674 19347 ft 432 kts 112°
2026-05-07 20:07 29.33092 48.38902 20052 ft 437 kts 112°
2026-05-07 20:07 29.31976 48.42166 20737 ft 441 kts 112°
2026-05-07 20:07 29.29411 48.49656 22217 ft 451 kts 112°
2026-05-07 20:08 29.23276 48.67501 25343 ft 472 kts 112°
2026-05-07 20:08 29.16786 48.86149 28077 ft 491 kts 115°
2026-05-07 20:08 29.05055 49.01248 31553 ft 481 kts 141°
2026-05-07 20:08 28.91594 49.14204 34651 ft 476 kts 141°
2026-05-07 20:09 28.79590 49.26287 36655 ft 479 kts 139°
2026-05-07 20:09 28.67317 49.38880 36995 ft 484 kts 139°
2026-05-07 20:09 28.55952 49.54418 36995 ft 486 kts 122°
2026-05-07 20:10 28.34745 49.86572 36995 ft 483 kts 144°
2026-05-07 20:10 28.05150 50.09024 36995 ft 483 kts 147°
2026-05-07 20:11 27.74951 50.31787 36995 ft 483 kts 147°
2026-05-07 20:11 27.44903 50.54612 36995 ft 483 kts 147°
2026-05-07 20:12 27.15067 50.77729 36994 ft 484 kts 142°
2026-05-07 20:12 27.02145 50.92136 36994 ft 485 kts 131°
2026-05-07 20:12 26.91949 51.08951 36995 ft 486 kts 122°
2026-05-07 20:12 26.84175 51.27608 36996 ft 488 kts 109°
2026-05-07 20:13 26.78351 51.47246 36995 ft 488 kts 109°
2026-05-07 20:13 26.66581 51.86392 36995 ft 488 kts 109°
2026-05-07 20:14 26.53946 52.25427 36995 ft 487 kts 110°
2026-05-07 20:14 26.41110 52.64379 36995 ft 487 kts 111°
2026-05-07 20:15 26.28715 53.01613 36995 ft 488 kts 111°
2026-05-07 20:15 26.26355 53.08654 36995 ft 488 kts 111°
2026-05-07 20:16 26.23975 53.15741 36995 ft 488 kts 111°
2026-05-07 20:16 26.21575 53.22872 36995 ft 488 kts 111°
2026-05-07 20:17 26.19187 53.29952 36651 ft 486 kts 111°
2026-05-07 20:17 26.17972 53.33406 36387 ft 483 kts 113°
2026-05-07 20:17 26.16620 53.36826 36052 ft 480 kts 115°
2026-05-07 20:17 26.15249 53.40211 35564 ft 478 kts 115°
2026-05-07 20:18 26.13875 53.43585 35015 ft 478 kts 115°
2026-05-07 20:18 26.12501 53.46956 34414 ft 478 kts 115°
2026-05-07 20:18 26.11131 53.50321 33812 ft 478 kts 115°
2026-05-07 20:18 26.09757 53.53693 33224 ft 477 kts 115°
2026-05-07 20:19 26.08383 53.57065 32694 ft 480 kts 115°
2026-05-07 20:19 26.06980 53.60505 32160 ft 482 kts 115°
2026-05-07 20:19 26.05610 53.63863 31555 ft 483 kts 115°
2026-05-07 20:19 26.04221 53.67266 30921 ft 483 kts 115°
2026-05-07 20:20 26.02829 53.70670 30244 ft 483 kts 115°
2026-05-07 20:20 26.01436 53.74078 29553 ft 484 kts 115°
2026-05-07 20:20 26.00054 53.77496 28847 ft 485 kts 114°
2026-05-07 20:20 25.98703 53.80934 28097 ft 486 kts 114°
2026-05-07 20:21 25.97362 53.84377 27504 ft 483 kts 114°
2026-05-07 20:21 25.96031 53.87791 26994 ft 478 kts 114°
2026-05-07 20:21 25.94712 53.91157 26501 ft 473 kts 114°
2026-05-07 20:21 25.93398 53.94501 25945 ft 470 kts 114°
2026-05-07 20:22 25.92088 53.97811 25454 ft 465 kts 115°
2026-05-07 20:22 25.90703 54.01030 24975 ft 460 kts 116°
2026-05-07 20:22 25.89300 54.04207 24526 ft 455 kts 117°
2026-05-07 20:22 25.87906 54.07347 24063 ft 450 kts 117°
2026-05-07 20:23 25.86526 54.10455 23615 ft 446 kts 117°
2026-05-07 20:23 25.85159 54.13533 23160 ft 442 kts 117°
2026-05-07 20:23 25.83805 54.16583 22720 ft 438 kts 117°
2026-05-07 20:23 25.82507 54.19631 22274 ft 434 kts 115°
2026-05-07 20:24 25.81360 54.22723 21827 ft 431 kts 111°
2026-05-07 20:24 25.80356 54.25848 21391 ft 428 kts 110°
2026-05-07 20:24 25.79392 54.28963 20938 ft 425 kts 109°
2026-05-07 20:24 25.78439 54.32052 20471 ft 422 kts 109°
2026-05-07 20:25 25.77488 54.35127 20008 ft 419 kts 109°
2026-05-07 20:25 25.76542 54.38181 19552 ft 417 kts 109°
2026-05-07 20:25 25.75598 54.41215 19091 ft 414 kts 109°
2026-05-07 20:25 25.74660 54.44229 18636 ft 411 kts 110°
2026-05-07 20:26 25.73727 54.47223 18178 ft 409 kts 110°
2026-05-07 20:26 25.73111 54.49197 17880 ft 407 kts 110°
2026-05-07 20:26 25.72185 54.52160 17433 ft 405 kts 110°
2026-05-07 20:26 25.71265 54.55103 16969 ft 402 kts 110°
2026-05-07 20:27 25.70352 54.58022 16527 ft 400 kts 110°
2026-05-07 20:27 25.69440 54.60928 16081 ft 397 kts 110°
2026-05-07 20:27 25.68520 54.63808 15662 ft 394 kts 110°
2026-05-07 20:27 25.67602 54.66666 15235 ft 392 kts 110°
2026-05-07 20:28 25.66688 54.69505 14804 ft 389 kts 110°
2026-05-07 20:28 25.65779 54.72329 14367 ft 387 kts 110°
2026-05-07 20:28 25.64875 54.75136 13924 ft 385 kts 110°
2026-05-07 20:28 25.63977 54.77925 13484 ft 383 kts 110°
2026-05-07 20:29 25.63085 54.80696 13036 ft 380 kts 110°
2026-05-07 20:29 25.62199 54.83446 12604 ft 377 kts 110°
2026-05-07 20:29 25.61295 54.86192 12240 ft 384 kts 112°
2026-05-07 20:29 25.60258 54.88951 12198 ft 389 kts 114°
2026-05-07 20:30 25.59185 54.91714 12194 ft 390 kts 114°
2026-05-07 20:30 25.58106 54.94473 12195 ft 391 kts 114°
2026-05-07 20:30 25.57026 54.97238 12188 ft 391 kts 114°
2026-05-07 20:30 25.55948 54.99999 12152 ft 387 kts 114°
2026-05-07 20:31 25.54874 55.02685 11442 ft 378 kts 116°
2026-05-07 20:31 25.53661 55.05287 10106 ft 379 kts 120°
2026-05-07 20:31 25.52364 55.07797 9172 ft 370 kts 121°
2026-05-07 20:31 25.51102 55.10215 8530 ft 354 kts 121°
2026-05-07 20:32 25.49907 55.12508 8276 ft 333 kts 121°
2026-05-07 20:32 25.48760 55.14713 8246 ft 326 kts 121°
2026-05-07 20:32 25.47629 55.16884 8201 ft 325 kts 121°
2026-05-07 20:32 25.46440 55.19012 8196 ft 324 kts 125°
2026-05-07 20:33 25.45104 55.21023 8196 ft 324 kts 130°
2026-05-07 20:33 25.43634 55.22910 8201 ft 323 kts 133°
2026-05-07 20:33 25.42130 55.24752 8190 ft 323 kts 134°
2026-05-07 20:33 25.40654 55.26551 8185 ft 308 kts 134°
2026-05-07 20:34 25.39254 55.28264 8173 ft 293 kts 134°
2026-05-07 20:34 25.37894 55.29927 8182 ft 290 kts 134°
2026-05-07 20:34 25.36548 55.31594 8186 ft 290 kts 131°
2026-05-07 20:34 25.35309 55.33361 8190 ft 291 kts 126°
2026-05-07 20:35 25.34237 55.35186 8181 ft 280 kts 123°
2026-05-07 20:35 25.33222 55.37017 8089 ft 271 kts 123°
2026-05-07 20:35 25.32252 55.38776 7883 ft 265 kts 123°
2026-05-07 20:35 25.31301 55.40496 7514 ft 266 kts 123°
2026-05-07 20:36 25.30322 55.42259 7199 ft 265 kts 123°
2026-05-07 20:36 25.29370 55.43969 6893 ft 264 kts 123°
2026-05-07 20:36 25.28422 55.45672 6714 ft 256 kts 123°
2026-05-07 20:36 25.27507 55.47317 6595 ft 245 kts 123°
2026-05-07 20:37 25.26627 55.48897 6330 ft 239 kts 123°
2026-05-07 20:37 25.25756 55.50461 5944 ft 238 kts 123°
2026-05-07 20:37 25.24887 55.52022 5583 ft 237 kts 123°
2026-05-07 20:37 25.24027 55.53567 5216 ft 236 kts 123°
2026-05-07 20:38 25.23169 55.55109 4858 ft 235 kts 123°
2026-05-07 20:38 25.22317 55.56642 4513 ft 233 kts 123°
2026-05-07 20:38 25.21469 55.58164 4137 ft 232 kts 123°
2026-05-07 20:38 25.20627 55.59683 3802 ft 230 kts 123°
2026-05-07 20:39 25.19806 55.61160 3622 ft 221 kts 123°
2026-05-07 20:39 25.19015 55.62578 3446 ft 213 kts 123°
2026-05-07 20:39 25.18252 55.63945 3176 ft 207 kts 123°
2026-05-07 20:39 25.17498 55.65303 2817 ft 207 kts 124°
2026-05-07 20:40 25.16511 55.66404 2456 ft 201 kts 156°
2026-05-07 20:40 25.15190 55.66601 2190 ft 190 kts 197°
2026-05-07 20:40 25.13982 55.66017 2212 ft 190 kts 218°
2026-05-07 20:40 25.13239 55.64863 2188 ft 186 kts 256°
2026-05-07 20:41 25.13132 55.63450 2215 ft 184 kts 270°
2026-05-07 20:41 25.13159 55.62031 2196 ft 185 kts 272°
2026-05-07 20:41 25.13199 55.60604 2199 ft 186 kts 272°
2026-05-07 20:41 25.13336 55.59186 2199 ft 185 kts 280°
2026-05-07 20:42 25.13685 55.57815 2190 ft 185 kts 290°
2026-05-07 20:42 25.14226 55.56520 2191 ft 186 kts 296°
2026-05-07 20:42 25.14871 55.55287 2189 ft 179 kts 299°
2026-05-07 20:42 25.15479 55.54196 2144 ft 156 kts 299°
2026-05-07 20:43 25.16043 55.53187 2158 ft 153 kts 299°
2026-05-07 20:43 25.16600 55.52183 2187 ft 153 kts 299°
2026-05-07 20:43 25.17156 55.51177 2193 ft 153 kts 299°
2026-05-07 20:43 25.17707 55.50177 2195 ft 152 kts 298°
2026-05-07 20:44 25.18255 55.49181 2085 ft 151 kts 298°
2026-05-07 20:44 25.18800 55.48189 1878 ft 150 kts 298°
2026-05-07 20:44 25.19336 55.47214 1692 ft 151 kts 299°
2026-05-07 20:44 25.19883 55.46221 1473 ft 151 kts 299°
2026-05-07 20:45 25.20431 55.45226 1292 ft 151 kts 299°
2026-05-07 20:45 25.20977 55.44235 1083 ft 151 kts 299°
2026-05-07 20:45 25.21521 55.43249 878 ft 150 kts 299°
2026-05-07 20:45 25.22065 55.42261 680 ft 150 kts 299°
2026-05-07 20:46 25.22609 55.41272 447 ft 150 kts 300°
2026-05-07 20:46 25.23157 55.40288 238 ft 151 kts 299°
2026-05-07 20:46 25.23701 55.39292 89 ft 152 kts 300°
2026-05-07 20:46 25.24210 55.38370 40 ft 114 kts 301°
2026-05-07 20:47 25.24506 55.37827 37 ft 51 kts 301°
2026-05-07 20:47 25.24636 55.37593 36 ft 33 kts 301°
2026-05-07 20:47 25.24737 55.37408 36 ft 25 kts 297°
2026-05-07 20:47 25.24782 55.37219 38 ft 26 kts 275°
2026-05-07 20:48 25.24787 55.37103 34 ft 4 kts 272°
2026-05-07 20:48 25.24788 55.37084 34 ft 1 kts 272°
2026-05-07 20:48 25.24789 55.37062 33 ft 0 kts 272°
2026-05-07 20:48 25.24790 55.37048 33 ft 4 kts 272°
2026-05-07 20:49 25.24792 55.36997 32 ft 9 kts 274°
2026-05-07 20:49 25.24816 55.36920 32 ft 12 kts 297°
2026-05-07 20:49 25.24859 55.36821 31 ft 16 kts 285°
2026-05-07 20:49 25.24890 55.36689 31 ft 19 kts 291°
2026-05-07 20:50 25.24957 55.36545 31 ft 22 kts 304°
2026-05-07 20:50 25.25048 55.36391 31 ft 25 kts 302°
2026-05-07 20:50 25.25145 55.36219 31 ft 27 kts 302°
2026-05-07 20:50 25.25238 55.36053 30 ft 23 kts 301°
2026-05-07 20:51 25.25326 55.35894 30 ft 26 kts 301°
2026-05-07 20:51 25.25424 55.35720 30 ft 22 kts 302°
2026-05-07 20:51 25.25496 55.35591 30 ft 21 kts 302°
2026-05-07 20:51 25.25580 55.35442 30 ft 24 kts 302°
2026-05-07 20:52 25.25674 55.35275 30 ft 27 kts 302°
2026-05-07 20:52 25.25762 55.35118 30 ft 22 kts 301°
2026-05-07 20:52 25.25847 55.34961 30 ft 25 kts 301°
2026-05-07 20:52 25.25933 55.34805 30 ft 23 kts 302°
2026-05-07 20:53 25.25994 55.34699 30 ft 18 kts 302°
2026-05-07 20:53 25.26044 55.34612 30 ft 15 kts 302°
2026-05-07 20:53 25.26098 55.34517 30 ft 12 kts 302°
2026-05-07 20:53 25.26116 55.34480 30 ft 4 kts 272°
2026-05-07 20:54 25.26100 55.34440 30 ft 7 kts 223°
2026-05-07 20:54 25.26047 55.34399 30 ft 11 kts 212°
2026-05-07 20:54 25.25998 55.34366 30 ft 0 kts 211°
2026-05-07 20:54 25.25986 55.34359 30 ft 4 kts 211°
2026-05-07 20:55 25.25979 55.34353 30 ft 2 kts 211°